Vertical_Velocity
-2 -7 0 -1 -2 0 -0 1 0 1 -3 -4 -2 -1 -1 -1 0 2 1 1 0 0 -0 0 1 -0 -1 2 1 1 -0 -0 -0 1 -1 -4 -2 0 0 1 1 2 1
0 -7 -1 4 -3 2 2 4 -2 -2 6 -0 2 1 3 1 3 -1 -0 -1 -1 -1 -1 -0 0 2 -0 1 2 1 1 -1 2 2 0 -9 -5 4 -2 2 3 2 2
-4 -3 -0 2 -2 3 2 1 3 -5 -6 -1 -1 8 0 1 1 1 0 -2 -2 -1 -1 -0 1 1 1 0 2 2 0 3 2 2 2 -1 -1 -2 3 -2 -2 0 -0
-4 -1 -1 2 -1 -3 1 0 0 1 1 -1 1 2 3 1 -2 -0 0 -1 1 -0 0 -0 0 1 2 -0 1 3 1 3 1 -1 2 1 -2 -3 -7 -5 2 1 1
-0 -4 -4 2 1 -3 0 -0 1 -0 -0 1 1 0 -0 -1 -0 -0 1 -0 -0 -0 0 0 1 0 1 0 0 1 1 3 2 2 0 0 -0 2 3 -3 -8 -2 -0
-1 -5 1 -5 -1 -4 -1 -1 2 2 1 1 2 1 0 0 -0 0 1 0 -0 -1 -0 -1 -0 -0 -0 -1 -1 1 2 2 2 3 6 0 -1 0 -0 -3 2 -2 4
-18 -3 -1 -1 -1 2 0 -0 -0 2 2 1 1 1 -0 -0 -2 -2 -2 -1 -1 -0 -0 1 -0 -1 -1 0 1 1 -0 -0 -2 4 -0 1 -1 0 1 3 -3 -3 4
-1 4 -7 7 3 -1 2 1 -1 -1 2 1 -0 -0 1 -1 -1 1 -1 -2 -2 -2 -1 0 0 0 -1 1 -0 -0 0 -1 -1 3 -1 3 3 1 1 -2 0 2 4
-3 -7 6 0 -0 0 1 2 3 -1 -0 2 1 -1 -2 -2 -2 -2 -0 1 0 -0 -1 -0 -1 1 1 1 -0 -0 0 -0 1 2 4 2 0 -1 -2 -3 0 -1 -1
-0 0 -2 1 0 4 2 1 2 1 -1 -0 -2 -1 -0 -0 -0 0 -0 1 1 0 -1 -3 -3 -2 -1 -1 0 2 1 1 1 1 0 -2 -2 -2 -1 2 2 2 2
-3 -0 0 1 3 4 -1 -1 1 1 -1 1 1 -1 -2 -0 -1 -1 -2 -0 -0 -0 0 -1 -0 -1 0 0 1 -1 2 1 2 0 0 -0 2 0 0 2 1 1 2
1 -0 -1 1 -1 -3 -1 1 -5 -3 -1 -1 1 -0 -0 -1 -2 -1 -1 -2 -1 -0 0 1 -0 -1 -1 1 -1 1 -0 -0 -1 -1 3 1 1 2 3 -1 -1 -2 3
-3 -1 3 1 0 0 -1 0 1 0 -1 -1 -2 -2 -1 -2 -2 -1 -0 -1 -1 -1 -1 0 -1 1 1 -1 -1 -2 1 -0 -1 1 0 -1 2 -0 -2 -2 -1 -2 1
2 0 3 1 3 -0 -0 -2 -0 -0 1 -2 -1 -3 -1 -1 -2 0 0 -2 -1 -1 -2 -1 -2 1 1 0 1 -0 -0 0 -0 2 2 1 -2 -2 -1 0 -1 -1 1
-4 -0 -4 0 -2 1 0 -2 -2 -2 -0 -0 1 -3 -2 -1 -1 -2 2 -1 0 -1 -0 -1 -1 3 1 1 3 1 1 1 -1 -1 -0 -1 -2 -0 0 1 0 0 0
-0 -1 1 -0 1 -4 -0 -1 -1 -0 1 1 -0 1 0 -3 3 -1 -1 2 -2 2 -1 0 0 -2 -1 5 0 0 -0 -0 0 1 -1 -2 -1 1 2 2 1 0 -2
-3 0 -2 -1 -1 -3 0 -1 -0 -0 -1 -1 -1 1 4 -5 -4 -1 1 -1 0 1 0 0 -1 1 -1 -0 1 1 1 -0 -1 -0 -1 -1 0 -3 -0 0 1 -1 -0
-0 -3 2 1 1 2 1 2 1 3 2 0 -4 -2 -1 2 -2 -5 0 -0 -4 0 -2 3 -2 1 2 -4 2 2 2 1 0 -1 0 -3 -1 -0 -0 4 -2 -2 -2
3 2 2 3 2 -1 0 -1 -1 -2 -1 -1 -1 -1 -1 -3 -0 -1 -1 2 -2 0 -1 1 1 -2 1 1 1 2 -1 -1 0 -0 -1 0 1 0 2 0 -2 1 1
1 1 -0 -0 -2 -1 -0 0 1 1 -0 0 3 1 0 -2 -2 0 -1 -1 -0 1 2 -1 -2 -0 1 1 1 -1 1 -1 -1 -1 -1 -1 -1 5 -2 -1 1 0 -1
-2 1 0 3 2 -1 -1 0 -0 -0 3 2 1 -1 -1 -0 1 0 0 -0 1 -0 -0 0 0 0 1 -0 1 0 -1 -0 0 -1 -1 0 0 0 -1 1 1 -2 -2
-0 0 1 1 1 1 2 0 -0 2 0 -0 0 1 1 1 -1 -0 1 1 2 -1 1 -1 -0 -1 0 2 -0 -1 -1 -1 -2 -1 1 1 -1 -1 -0 1 -1 -1 -0
1 1 3 2 1 0 1 -1 -1 -1 -0 0 0 -0 -0 -2 -1 -1 -0 -1 1 -1 -0 -0 -0 -1 1 1 -2 -1 -0 -0 -1 0 0 -1 -0 0 -0 -0 -1 -0 -0
0 0 1 0 -0 -1 0 -1 0 -1 1 1 1 -0 -2 -1 0 0 -0 1 0 0 -1 0 -2 -1 -1 0 -0 -2 -1 0 0 -0 0 0 0 -1 -1 -1 -0 -0 -0
0 1 0 1 1 1 -1 -2 -0 -1 -1 -1 -1 -1 -1 -1 -0 0 -0 -0 1 1 1 -2 -0 -1 -0 1 -1 -0 1 1 0 1 1 0 -0 -0 -0 -1 -0 -0 -1
1 -1 -3 -2 -1 3 1 -0 -0 0 -0 0 -1 -0 -1 -1 0 -0 -0 -1 0 -0 -1 0 1 1 -0 -2 -2 -1 0 1 0 1 1 -0 0 0 -0 -1 -0 -0 -0
Height
1527 1529 1529 1530 1532 1535 1538 1540 1543 1547 1549 1550 1552 1554 1554 1556 1558 1559 1561 1562 1563 1564 1564 1564 1565 1565 1565 1565 1565 1565 1564 1564 1563 1562 1561 1560 1559 1558 1557 1557 1556 1555 1553
1523 1527 1527 1528 1529 1531 1534 1537 1539 1544 1545 1547 1549 1550 1552 1553 1554 1555 1556 1557 1558 1559 1560 1560 1560 1560 1560 1560 1560 1560 1559 1559 1558 1558 1557 1556 1557 1555 1553 1552 1552 1552 1551
1518 1524 1525 1525 1526 1528 1531 1533 1535 1538 1542 1544 1546 1546 1548 1549 1550 1551 1551 1552 1553 1554 1554 1555 1555 1555 1554 1554 1555 1554 1554 1553 1553 1553 1554 1553 1552 1551 1550 1549 1548 1548 1548
1513 1518 1521 1521 1522 1525 1527 1530 1532 1535 1538 1541 1541 1543 1544 1545 1545 1546 1547 1547 1548 1548 1548 1549 1549 1549 1548 1548 1549 1549 1548 1548 1549 1548 1548 1548 1548 1548 1547 1545 1544 1544 1544
1507 1511 1514 1517 1518 1521 1523 1526 1528 1530 1533 1535 1537 1538 1539 1540 1540 1541 1542 1542 1542 1542 1542 1542 1543 1543 1542 1543 1543 1543 1543 1543 1543 1543 1543 1542 1543 1543 1542 1541 1542 1540 1540
1501 1507 1509 1512 1515 1517 1520 1522 1524 1526 1528 1530 1532 1533 1534 1535 1536 1536 1536 1536 1536 1536 1537 1537 1537 1537 1537 1537 1537 1537 1537 1537 1538 1538 1538 1538 1539 1538 1538 1538 1537 1537 1537
1500 1501 1503 1505 1508 1511 1514 1517 1520 1522 1524 1526 1527 1528 1529 1530 1530 1531 1531 1531 1531 1532 1532 1531 1531 1531 1531 1531 1530 1530 1530 1531 1532 1533 1534 1534 1533 1534 1534 1534 1534 1533 1532
1488 1492 1496 1498 1501 1507 1510 1513 1516 1519 1521 1522 1523 1524 1525 1526 1526 1527 1527 1527 1528 1528 1528 1527 1527 1526 1526 1526 1525 1525 1525 1526 1527 1528 1529 1529 1528 1528 1529 1529 1530 1529 1528
1486 1487 1489 1493 1497 1501 1505 1508 1512 1515 1518 1519 1520 1520 1521 1522 1523 1523 1523 1523 1523 1523 1523 1522 1522 1522 1521 1520 1520 1520 1521 1521 1522 1523 1523 1523 1523 1524 1524 1524 1524 1524 1523
1480 1483 1485 1487 1491 1496 1500 1505 1509 1511 1514 1515 1516 1517 1518 1518 1519 1519 1519 1519 1518 1518 1517 1517 1517 1517 1516 1516 1516 1516 1516 1516 1517 1517 1517 1518 1518 1519 1518 1518 1518 1518 1518
1478 1479 1481 1484 1488 1492 1498 1503 1505 1508 1511 1512 1512 1513 1514 1514 1514 1514 1515 1515 1515 1514 1513 1512 1512 1512 1511 1511 1511 1510 1512 1512 1512 1512 1513 1514 1514 1514 1514 1513 1514 1515 1514
1475 1477 1478 1482 1485 1491 1497 1499 1502 1506 1508 1509 1509 1509 1510 1510 1511 1511 1511 1511 1511 1510 1510 1509 1508 1507 1506 1505 1506 1506 1507 1508 1508 1509 1509 1509 1510 1510 1509 1510 1511 1513 1513
1477 1478 1478 1480 1484 1488 1493 1497 1500 1503 1504 1504 1506 1506 1507 1506 1507 1508 1507 1507 1506 1506 1506 1506 1504 1503 1501 1501 1500 1502 1502 1503 1503 1505 1505 1506 1507 1507 1507 1509 1509 1510 1510
1476 1478 1480 1482 1484 1487 1491 1495 1497 1499 1500 1501 1503 1503 1503 1504 1504 1505 1504 1504 1503 1503 1502 1502 1501 1500 1498 1497 1497 1497 1498 1498 1500 1502 1503 1504 1504 1505 1506 1506 1506 1507 1507
1474 1474 1477 1479 1481 1485 1488 1490 1493 1495 1496 1498 1498 1498 1499 1501 1501 1501 1500 1499 1499 1498 1498 1497 1497 1496 1496 1496 1495 1495 1495 1496 1498 1500 1501 1502 1503 1504 1504 1504 1503 1504 1504
1471 1473 1475 1477 1478 1482 1485 1487 1490 1492 1493 1494 1494 1495 1494 1496 1496 1496 1496 1495 1495 1494 1494 1494 1495 1494 1495 1494 1494 1494 1494 1496 1497 1498 1500 1501 1502 1502 1504 1502 1501 1502 1502
1465 1467 1469 1471 1475 1477 1481 1483 1486 1488 1488 1490 1490 1490 1490 1490 1492 1494 1493 1490 1492 1492 1491 1491 1493 1493 1494 1493 1495 1494 1494 1494 1497 1498 1499 1500 1501 1501 1501 1500 1500 1500 1500
1457 1459 1461 1465 1469 1473 1477 1479 1481 1483 1483 1485 1486 1487 1488 1486 1488 1490 1490 1487 1488 1490 1490 1489 1491 1492 1494 1494 1493 1494 1494 1495 1496 1497 1498 1499 1500 1500 1500 1498 1497 1497 1497
1452 1453 1455 1460 1466 1470 1473 1476 1477 1478 1480 1482 1482 1483 1482 1483 1484 1485 1485 1485 1487 1488 1489 1488 1490 1492 1494 1493 1493 1493 1493 1495 1496 1496 1497 1498 1498 1498 1497 1497 1496 1496 1496
1447 1449 1452 1457 1463 1466 1468 1471 1472 1474 1475 1477 1478 1478 1478 1479 1480 1481 1482 1484 1485 1486 1486 1487 1489 1491 1492 1491 1492 1492 1492 1494 1495 1495 1496 1496 1496 1496 1496 1495 1495 1495 1495
1443 1446 1449 1454 1458 1461 1464 1466 1468 1469 1471 1472 1473 1474 1475 1477 1477 1478 1479 1481 1482 1483 1484 1486 1488 1490 1490 1490 1491 1491 1492 1492 1493 1494 1495 1494 1495 1494 1494 1494 1493 1494 1494
1440 1443 1447 1451 1454 1457 1460 1462 1464 1466 1467 1468 1469 1471 1472 1473 1473 1474 1476 1477 1479 1481 1483 1485 1486 1487 1488 1488 1489 1490 1490 1491 1492 1493 1493 1492 1492 1492 1492 1492 1492 1493 1492
1440 1443 1446 1449 1452 1455 1457 1459 1461 1462 1463 1465 1466 1467 1468 1468 1470 1471 1472 1474 1476 1478 1480 1482 1484 1485 1486 1486 1487 1488 1488 1489 1490 1491 1491 1490 1490 1490 1490 1490 1490 1490 1490
1442 1444 1447 1449 1451 1453 1455 1456 1457 1459 1460 1461 1462 1463 1464 1465 1466 1467 1469 1471 1473 1475 1478 1480 1482 1483 1483 1484 1484 1486 1487 1487 1488 1488 1488 1488 1488 1488 1488 1487 1487 1487 1487
1443 1445 1447 1449 1450 1451 1453 1454 1455 1456 1457 1458 1459 1459 1460 1461 1463 1464 1466 1468 1471 1474 1476 1477 1479 1480 1480 1482 1482 1484 1484 1485 1485 1486 1485 1485 1485 1485 1484 1484 1484 1483 1483
1444 1445 1447 1448 1448 1449 1450 1452 1452 1453 1454 1455 1455 1455 1456 1457 1459 1461 1463 1465 1468 1470 1472 1474 1475 1476 1477 1478 1479 1480 1481 1481 1482 1482 1482 1482 1482 1481 1481 1480 1480 1479 1479